User: anonymous   Login
Location: Unspecified
(0.0000°N, 0.0000°E)
Time: 07:11:08
(UTC+00:00)
Language:

Kosmos-1333 - Orbit

View from above orbital plane
View from above orbital plane
View from above satellite
View from above satellite

Ground track
Ground track

The orbit data is extracted from the following two-line orbital elements,

1 13033U 82003A   24105.20143229  .00000113  00000-0  10565-3 0  9993
2 13033  82.9457  31.8823 0031033 237.4199 231.8566 13.73349144117488
Epoch (UTC): 14 April 2024 04:50:03
Eccentricity: 0.0031033
inclination: 82.9457°
perigee height: 965 km
apogee height: 1010 km
right ascension of ascending node: 31.8823°
argument of perigee: 237.4199°
revolutions per day: 13.73349144
mean anomaly at epoch: 231.8566°
orbit number at epoch: 11748

The dashed part of the orbit path shows where the satellite is in the earth's shadow,  

DLR